Location: Ames
(42.0350°N, 93.6200°W)
Time: 09:45:53
(UTC-05:00)

ISS - All Passes

Search period start: 23 April 2014 00:00
Search period end: 03 May 2014 00:00
Orbit: 413 x 418 km, 51.7° (Epoch: 23 April)

Date Brightness Start Highest point End Pass type
(mag) Time Alt. Az. Time Alt. Az. Time Alt. Az.
23 Apr - 13:10:33 10° SSE 13:11:51 12° SE 13:13:09 10° ESE daylight
23 Apr - 14:44:46 10° WSW 14:48:06 83° NW 14:51:28 10° NE daylight
23 Apr - 16:22:36 10° WNW 16:25:13 21° NNW 16:27:52 10° NE daylight
23 Apr - 18:00:40 10° NW 18:02:51 16° N 18:05:03 10° NE daylight
23 Apr - 19:37:14 10° NW 19:40:19 33° NNE 19:43:24 10° E daylight
23 Apr - 21:13:56 10° WNW 21:17:04 36° SW 21:20:10 10° SSE visible
24 Apr - 13:56:06 10° SW 13:59:22 56° SE 14:02:39 10° ENE daylight
24 Apr - 15:33:23 10° W 15:36:16 26° NNW 15:39:10 10° NE daylight
24 Apr - 17:11:41 10° NW 17:13:49 16° N 17:15:57 10° NE daylight
24 Apr - 18:48:33 10° NW 18:51:24 25° NNE 18:54:14 10° ENE daylight
24 Apr - 20:25:01 10° WNW 20:28:21 66° SW 20:31:40 10° SE daylight
25 Apr - 13:07:38 10° SSW 13:10:37 31° SE 13:13:38 10° ENE daylight
25 Apr - 14:44:11 10° W 14:47:18 36° NNW 14:50:26 10° NE daylight
25 Apr - 16:22:30 10° NW 16:24:43 16° N 16:26:56 10° NE daylight
25 Apr - 17:59:47 10° NW 18:02:21 20° NNE 18:04:54 10° ENE daylight
25 Apr - 19:36:09 10° NW 19:39:30 73° NNE 19:42:50 10° ESE daylight
25 Apr - 21:14:01 10° W 21:15:49 14° SW 21:17:36 10° SSW visible
26 Apr - 12:19:29 10° S 12:21:52 18° SE 12:24:15 10° E daylight
26 Apr - 13:55:01 10° WSW 13:58:18 55° NNW 14:01:36 10° NE daylight
26 Apr - 15:33:08 10° WNW 15:35:33 18° NNW 15:37:58 10° NE daylight
26 Apr - 17:10:52 10° NW 17:13:11 17° N 17:15:30 10° NE daylight
26 Apr - 18:47:17 10° NW 18:50:31 45° NNE 18:53:45 10° ESE daylight
26 Apr - 20:24:19 10° W 20:27:04 24° SW 20:29:48 10° S daylight
27 Apr - 11:32:27 10° SE 11:33:05 10° SE 11:33:44 10° ESE daylight
27 Apr - 13:05:58 10° SW 13:09:17 88° SE 13:12:38 10° NE daylight
27 Apr - 14:43:40 10° WNW 14:46:20 22° NNW 14:49:01 10° NE daylight
27 Apr - 16:21:47 10° NW 16:23:56 16° N 16:26:05 10° NE daylight
27 Apr - 17:58:22 10° NW 18:01:24 31° NNE 18:04:25 10° E daylight
27 Apr - 19:35:00 10° WNW 19:38:10 41° SW 19:41:20 10° SSE daylight
28 Apr - 12:17:03 10° SW 12:20:15 49° SE 12:23:30 10° ENE daylight
28 Apr - 13:54:09 10° W 13:57:05 28° NNW 14:00:02 10° NE daylight
28 Apr - 15:32:28 10° NW 15:34:36 16° N 15:36:43 10° NE daylight
28 Apr - 17:09:24 10° NW 17:12:10 23° NNE 17:14:55 10° ENE daylight
28 Apr - 18:45:48 10° WNW 18:49:09 74° SW 18:52:28 10° SE daylight
29 Apr - 11:28:21 10° SSW 11:31:13 28° SE 11:34:07 10° ENE daylight
29 Apr - 13:04:40 10° W 13:07:49 39° NNW 13:10:59 10° NE daylight
29 Apr - 14:42:56 10° NW 14:45:11 17° N 14:47:26 10° NE daylight
29 Apr - 16:20:19 10° NW 16:22:48 19° NNE 16:25:17 10° ENE daylight
29 Apr - 17:56:39 10° NW 17:59:59 65° NNE 18:03:17 10° ESE daylight
29 Apr - 19:34:15 10° W 19:36:19 16° SW 19:38:24 10° S daylight
30 Apr - 10:40:03 10° S 10:42:10 16° SE 10:44:19 10° E daylight
30 Apr - 12:15:14 10° WSW 12:18:32 62° NNW 12:21:51 10° NE daylight
30 Apr - 13:53:15 10° WNW 13:55:43 19° NNW 13:58:11 10° NE daylight
30 Apr - 15:31:05 10° NW 15:33:20 17° N 15:35:35 10° NE daylight
30 Apr - 17:07:30 10° NW 17:10:41 40° NNE 17:13:51 10° E daylight
30 Apr - 18:44:23 10° WNW 18:47:15 27° SW 18:50:06 10° SSE daylight
01 May - 11:25:55 10° SW 11:29:14 77° SE 11:32:33 10° ENE daylight
01 May - 13:03:28 10° WNW 13:06:12 23° NNW 13:08:57 10° NE daylight
01 May - 14:41:39 10° NW 14:43:46 16° N 14:45:53 10° NE daylight
01 May - 16:18:17 10° NW 16:21:15 28° NNE 16:24:11 10° E daylight
01 May - 17:54:49 10° WNW 17:58:03 48° SW 18:01:15 10° SE daylight
02 May - 10:36:46 10° SSW 10:39:55 42° SE 10:43:05 10° ENE daylight
02 May - 12:13:40 10° W 12:16:40 30° NNW 12:19:40 10° NE daylight
02 May - 13:51:59 10° NW 13:54:07 16° N 13:56:15 10° NE daylight
02 May - 15:29:00 10° NW 15:31:41 22° NNE 15:34:21 10° ENE daylight
02 May - 17:05:22 10° NW 17:08:42 86° SW 17:12:01 10° SE daylight
02 May - 18:44:31 10° WSW 18:44:51 10° SW 18:45:11 10° SW daylight
